Location: Wyoming Infrared Observatory
(41.0971°N, 105.9765°W)
Time: 14:58:30
(UTC-06:00)

Daily predictions for brighter satellites

Satellite Brightness Start Highest point End
(mag) Time Altitude Azimuth Time Altitude Azimuth Time Altitude Azimuth
Cosmos 1821 Rocket 4.1 19:40:26 10° S 19:46:48 77° E 19:53:09 10° N
Cosmos 1766 3.3 19:47:37 10° S 19:51:24 55° E 19:55:13 10° NNE
COSMOS 2406 4.3 19:46:31 10° NW 19:52:03 50° WSW 19:57:31 10° S
METEOR-M 4.5 19:46:48 10° S 19:52:07 73° WSW 19:57:28 10° NNW
Resurs 01 Rocket 2.1 19:48:12 10° SE 19:52:18 39° ENE 19:56:25 10° N
Cosmos 1125 Rocket 4.3 19:50:02 10° SSE 19:54:28 29° E 19:58:56 10° NE
Meteor 2-5 Rocket 4.4 19:49:07 10° NNW 19:54:48 64° W 20:00:34 10° S
Cosmos 1844 4.3 19:52:52 10° SSW 19:58:36 67° WNW 20:04:24 10° NNE
Lacrosse 5 rocket 3.2 19:56:45 10° NNW 19:59:19 16° NNE 20:01:48 10° ENE
HJ-1C 3.4 19:59:33 10° SSE 20:02:55 70° ENE 20:06:20 10° N
Cosmos 1674 4.2 20:01:54 10° NNE 20:04:34 18° ENE 20:06:52 12° ESE
Cosmos 1605 Rocket 4.1 19:58:49 10° S 20:04:56 58° E 20:11:09 10° NNE
SeaSat 1 2.4 20:04:07 10° SSE 20:09:02 87° ENE 20:14:00 10° NNW
SL-27 R/B 3.0 20:06:54 10° NNW 20:10:27 63° WSW 20:14:02 10° S
RESURS DK-1 2.9 20:10:39 10° NNW 20:14:44 60° WSW 20:18:47 10° S
CZ-2D R/B 3.4 20:15:01 10° SSE 20:18:46 52° ENE 20:22:34 10° N
Cosmos 2123 Rocket 4.1 20:12:43 10° N 20:19:05 90° NNE 20:25:22 10° S
Meteor 1-29 4.2 20:17:19 10° NE 20:20:03 21° E 20:22:08 14° SE
GPS 2-05 Rocket1 4.4 20:19:47 10° SW 20:22:40 23° SSE 20:24:11 18° SE
Cosmos 1805 3.1 20:19:25 10° S 20:23:16 68° E 20:27:10 10° NNE
COSMOS 2487 3.3 20:22:15 10° N 20:25:32 33° ENE 20:27:15 21° ESE
Meteor 1-21 Rocket 4.4 20:20:43 10° N 20:26:26 54° ENE 20:32:11 10° SSE
In-Cosmos 22 4.1 20:22:38 10° N 20:27:58 85° W 20:33:14 10° S
BREEZE-M DEB (TANK) 3.1 20:26:52 10° WSW 20:29:39 88° NW 20:37:05 10° ENE
Cosmos 1818 3.5 20:25:19 10° NNW 20:30:47 75° ENE 20:35:22 15° SE
ALOS 3.2 20:26:43 10° S 20:31:16 51° W 20:35:50 10° NNW
Resurs 1-3 3.6 20:28:06 10° SSE 20:32:28 89° SW 20:36:54 10° NNW
Meteor 1-4 Rocket 2.3 20:30:11 10° S 20:33:38 72° E 20:37:07 10° NNE
Cosmos 1269 Rocket 4.0 20:31:50 10° NNW 20:37:05 61° ENE 20:41:19 16° SSE
Cosmos 1153 Rocket 4.5 20:32:01 10° S 20:38:23 73° E 20:44:46 10° NNE
Cosmos 1470 3.3 20:35:45 10° SSE 20:39:24 37° E 20:43:05 10° NNE
Cosmos 1408 Rocket 3.7 20:37:16 10° N 20:41:41 55° E 20:44:55 17° SSE
Cosmos 2061 Rocket 4.4 20:36:06 10° SSE 20:42:00 42° E 20:47:59 10° NNE
Cosmos 1544 3.5 20:38:35 10° SSW 20:42:12 66° W 20:45:52 10° N
Timation 1 Rocket 4.3 20:37:38 10° SSW 20:43:39 89° WNW 20:49:42 10° NNE
Cosmos 1833 Rocket 2.7 20:38:12 10° NNW 20:43:46 60° ENE 20:47:24 22° SE
CZ-4B DEB 3.0 20:44:38 41° E 20:45:00 43° ENE 20:47:58 10° N
Timation 2 Rocket 4.0 20:40:24 10° NNW 20:46:40 59° ENE 20:50:27 23° SE
Cosmos 1340 Rocket 3.4 20:43:21 10° N 20:47:07 36° ENE 20:47:49 34° E
Cosmos 1733 3.5 20:45:50 21° SSE 20:48:03 44° E 20:51:46 10° NNE
Cosmos 2278 Rocket 3.3 20:44:04 10° SW 20:49:30 46° WNW 20:54:58 10° NNE
Spot 1 4.2 20:46:04 12° SSE 20:50:23 82° ENE 20:55:20 10° NNW
Cosmos 372 Rocket 3.8 20:46:33 10° S 20:51:38 74° ESE 20:56:48 10° NNE
ISS -3.0 20:48:41 10° SSW 20:51:09 34° SSE 20:51:09 34° SSE
Cosmos 2344 4.4 20:45:15 10° WSW 20:52:44 54° NW 21:01:21 10° NNE
Cosmos 2098 Rocket 4.4 20:46:43 10° S 20:53:57 87° W 21:01:37 10° N
CZ-3B DEB 3.8 20:44:13 10° WSW 20:54:05 44° NW 20:58:49 10° NE
Tiangong 1 3.5 20:55:07 10° WSW 20:56:35 13° SW 20:57:20 12° SSW
H-2A R/B 4.5 20:53:59 10° SSW 20:57:32 34° W 21:01:08 10° NNW
Abrixas 2.8 20:55:23 10° WNW 20:58:09 50° SW 20:58:13 49° SSW
Cosmos 1459 Rocket 4.0 20:52:19 10° S 20:58:27 61° E 21:04:32 10° NNE
Cosmos 158 Rocket 3.9 20:54:23 10° NNW 20:59:31 81° ENE 21:02:37 25° SSE
ATLAS 5 CENTAUR R/B 1.7 20:55:42 10° SSW 21:00:19 66° ESE 21:05:20 10° NE
Cosmos 2173 Rocket 3.9 20:58:13 10° S 21:04:18 66° E 21:10:30 10° NNE
USA 215 3.3 20:58:44 10° NE 21:05:08 56° SE 21:11:30 10° SSW
Cosmos 2297 3.9 20:59:39 10° SSW 21:05:21 73° WNW 21:11:07 10° NNE
Cosmos 1867 3.8 21:01:01 10° SW 21:06:27 73° WNW 21:11:56 10° NNE
BREEZE-M DEB (TANK) 3.2 21:04:42 10° SW 21:08:10 66° SE 21:19:51 10° ENE
Helios 1B rocket 2.7 21:04:54 10° N 21:09:01 69° WNW 21:13:05 10° SSW
Cosmos 1076 Rocket 4.4 21:06:25 10° NNW 21:10:30 47° W 21:14:34 10° SSW
USA 186 3.3 21:11:28 23° W 21:11:28 23° W 21:13:09 10° NW
Cosmos 1953 4.0 21:12:42 10° SW 21:16:26 35° WNW 21:20:12 10° N
Cosmos 494 Rocket 4.4 21:12:19 10° N 21:17:11 42° ENE 21:17:23 42° ENE
Lacrosse 5 3.8 21:14:08 10° W 21:18:28 28° NNW 21:22:49 10° NNE
Cosmos 2082 Rocket 2.5 21:14:09 10° NNW 21:19:47 64° WSW 21:23:04 25° S
Cosmos 1939 Rocket 2.9 21:21:27 63° S 21:22:06 86° W 21:26:16 10° NNW
GP-B 4.0 21:18:34 10° SSW 21:22:51 49° W 21:27:12 10° NNW
Helios 1A 4.1 21:20:02 16° SSW 21:23:02 41° W 21:27:01 10° NNW
SPOT 5 4.0 21:24:16 33° ENE 21:24:16 33° ENE 21:28:35 10° N
Cosmos 1271 Rocket 3.3 21:20:37 10° SSW 21:24:34 60° W 21:28:34 10° N
Envisat 3.1 21:23:11 29° S 21:25:49 72° WSW 21:30:55 10° NNW
Meteor 1-16 Rocket 4.2 21:26:07 42° SSE 21:27:58 63° E 21:33:50 10° NNE
Meteor 2-17 Rocket 4.3 21:24:06 22° S 21:28:14 72° E 21:34:22 10° NNE
Resurs 01 Rocket 4.2 21:25:47 10° SW 21:28:55 19° W 21:32:04 10° NW
MetOp-A 4.4 21:31:24 47° ENE 21:31:24 47° ENE 21:36:22 10° N
H-2A R/B 3.7 21:33:28 20° NE 21:33:28 20° NE 21:36:11 10° NNE
ARGOS 4.0 21:33:03 34° NE 21:33:03 34° NE 21:37:08 10° N
Cosmos 2016 Rocket 3.8 21:31:29 19° S 21:36:04 84° E 21:42:15 10° N
Cosmos-2242 4.2 21:32:39 10° SSW 21:36:40 41° WNW 21:40:44 10° N
USA 267 4.2 21:35:30 29° ENE 21:37:39 37° NNE 21:43:30 10° NW
Lacrosse 5 rocket 2.0 21:35:14 10° NW 21:38:08 48° NW 21:38:08 48° NW
Terra 4.3 21:43:38 11° NNE 21:43:38 11° NNE 21:43:50 10° NNE
ERS-1 Rocket 2.8 21:43:21 83° S 21:43:35 89° W 21:48:39 10° NNW
YAOGAN 6 4.1 21:45:19 34° NNW 21:45:19 34° NNW 21:47:31 10° NNW
Cosmos 1725 Rocket 3.8 21:43:44 64° SE 21:44:17 68° E 21:50:26 10° NNE
Cosmos 1500 Rocket 4.5 21:55:40 10° NNW 21:58:56 45° NW 21:58:56 45° NW
Tsikada Rocket 3.8 21:56:03 10° N 22:02:17 85° E 22:02:20 84° E
Cosmos 2251 Rocket 4.1 22:10:05 10° NNW 22:14:41 55° WNW 22:14:41 55° WNW
ATLAS 5 CENTAUR R/B 4.2 22:41:53 10° W 22:45:32 21° NW 22:49:26 10° NNE
USA 215 4.0 22:41:51 10° NE 22:48:03 48° NNW 22:54:15 10° WSW
H-2A R/B 4.1 23:14:06 25° NW 23:14:06 25° NW 23:16:24 10° NNW
USA 267 4.3 23:22:50 41° NW 23:22:50 41° NW 23:26:50 10° NW
